• en Belgique
  • Liste des pays
  • À 7 jours
  • Température de l'eau
  • Carte satellitaire
  • Carte météo
  • Widgets météo
  • user-avatar
    Se connecter

    Météo par heure à Blankenberge

    Ce jour, 22 Novembre, Mercredi

    Heure Température Précipitation Vent Pression Humidité
    00:00 +11°C° 0 mm 10 m/s 755 mmHg 84%
    01:00 +11°C° 0 mm 11 m/s 754 mmHg 85%
    02:00 +11°C° 0 mm 11 m/s 754 mmHg 85%
    03:00 +11°C° 0 mm 11 m/s 754 mmHg 85%
    04:00 +9°C° 0 mm 10 m/s 754 mmHg 85%
    05:00 +9°C° 0 mm 10 m/s 753 mmHg 85%
    06:00 +9°C° 0 mm 10 m/s 753 mmHg 87%
    07:00 +9°C° 0 mm 10 m/s 753 mmHg 86%
    08:00 +8°C° 0 mm 11 m/s 753 mmHg 85%
    09:00 +8°C° 0 mm 11 m/s 753 mmHg 84%
    10:00 +9°C° 0 mm 11 m/s 753 mmHg 78%
    11:00 +11°C° 0 mm 10 m/s 753 mmHg 72%
    12:00 +11°C° 0 mm 10 m/s 752 mmHg 66%
    13:00 +11°C° 0 mm 10 m/s 752 mmHg 64%
    14:00 +11°C° 0 mm 10 m/s 751 mmHg 61%
    15:00 +11°C° 0 mm 10 m/s 750 mmHg 59%
    16:00 +11°C° 0 mm 10 m/s 750 mmHg 58%
    17:00 +9°C° 0 mm 11 m/s 750 mmHg 58%
    18:00 +9°C° 0 mm 11 m/s 749 mmHg 57%
    19:00 +9°C° 0 mm 11 m/s 749 mmHg 56%
    20:00 +9°C° 0 mm 11 m/s 749 mmHg 56%
    21:00 +9°C° 0 mm 12 m/s 748 mmHg 55%
    22:00 +9°C° 0 mm 12 m/s 748 mmHg 56%
    23:00 +9°C° 0 mm 12 m/s 748 mmHg 56%

    Demain, 23 Novembre, Jeudi

    Heure Température Précipitation Vent Pression Humidité
    00:00 +9°C° 0 mm 12 m/s 747 mmHg 57%
    01:00 +9°C° 0 mm 12 m/s 747 mmHg 58%
    02:00 +9°C° 0 mm 13 m/s 746 mmHg 59%
    03:00 +10°C° 0 mm 14 m/s 745 mmHg 61%
    04:00 +10°C° 0,1 mm 14 m/s 745 mmHg 62%
    05:00 +12°C° 0,1 mm 14 m/s 745 mmHg 62%
    06:00 +11°C° 0,1 mm 15 m/s 745 mmHg 63%
    07:00 +12°C° 0,2 mm 14 m/s 745 mmHg 66%
    08:00 +13°C° 0,2 mm 14 m/s 746 mmHg 69%
    09:00 +13°C° 0,2 mm 13 m/s 746 mmHg 71%
    10:00 +13°C° 0,2 mm 13 m/s 747 mmHg 72%
    11:00 +13°C° 0,2 mm 12 m/s 748 mmHg 73%
    12:00 +12°C° 0,2 mm 11 m/s 749 mmHg 74%
    13:00 +12°C° 0 mm 11 m/s 750 mmHg 71%
    14:00 +11°C° 0 mm 10 m/s 751 mmHg 68%
    15:00 +9°C° 0 mm 10 m/s 752 mmHg 65%
    16:00 +10°C° 0 mm 9 m/s 753 mmHg 67%
    17:00 +8°C° 0 mm 9 m/s 754 mmHg 69%
    18:00 +9°C° 0 mm 8 m/s 754 mmHg 70%
    19:00 +9°C° 0 mm 8 m/s 754 mmHg 73%
    20:00 +8°C° 0 mm 7 m/s 755 mmHg 76%
    21:00 +8°C° 0 mm 6 m/s 755 mmHg 78%
    22:00 +8°C° 0,3 mm 6 m/s 754 mmHg 80%
    23:00 +9°C° 0,3 mm 6 m/s 754 mmHg 83%

    Après-demain, 24 Novembre, Vendredi

    Heure Température Précipitation Vent Pression Humidité
    00:00 +9°C° 0,3 mm 6 m/s 753 mmHg 85%
    01:00 +10°C° 0,7 mm 8 m/s 753 mmHg 84%
    02:00 +11°C° 0,7 mm 9 m/s 752 mmHg 84%
    03:00 +12°C° 0,7 mm 10 m/s 752 mmHg 83%
    04:00 +11°C° 0,2 mm 9 m/s 753 mmHg 84%
    05:00 +10°C° 0,2 mm 7 m/s 753 mmHg 85%
    06:00 +10°C° 0,2 mm 6 m/s 754 mmHg 86%
    07:00 +9°C° 0 mm 5 m/s 755 mmHg 84%
    08:00 +8°C° 0 mm 4 m/s 756 mmHg 81%
    09:00 +9°C° 0 mm 3 m/s 756 mmHg 78%
    10:00 +9°C° 0 mm 3 m/s 757 mmHg 74%
    11:00 +10°C° 0 mm 2 m/s 757 mmHg 70%
    12:00 +10°C° 0 mm 2 m/s 757 mmHg 66%
    13:00 +11°C° 0 mm 1 m/s 757 mmHg 68%
    14:00 +11°C° 0 mm 1 m/s 757 mmHg 69%
    15:00 +11°C° 0 mm 1 m/s 757 mmHg 71%
    16:00 +9°C° 0 mm 2 m/s 757 mmHg 74%
    17:00 +9°C° 0 mm 2 m/s 757 mmHg 77%
    18:00 +9°C° 0 mm 2 m/s 757 mmHg 80%
    19:00 +8°C° 0,2 mm 2 m/s 756 mmHg 83%
    20:00 +8°C° 0,2 mm 2 m/s 756 mmHg 86%
    21:00 +8°C° 0,2 mm 3 m/s 755 mmHg 89%
    22:00 +8°C° 0,5 mm 2 m/s 755 mmHg 91%
    23:00 +8°C° 0,5 mm 2 m/s 755 mmHg 93%

    25 Novembre, Samedi

    Heure Température Précipitation Vent Pression Humidité
    00:00 +8°C° 0,5 mm 1 m/s 754 mmHg 94%
    01:00 +7°C° 0,7 mm 2 m/s 754 mmHg 94%
    02:00 +7°C° 0,7 mm 3 m/s 754 mmHg 94%
    03:00 +7°C° 0,7 mm 3 m/s 754 mmHg 94%
    04:00 +6°C° 1 mm 5 m/s 755 mmHg 92%
    05:00 +5°C° 1 mm 6 m/s 755 mmHg 90%
    06:00 +5°C° 1 mm 7 m/s 755 mmHg 88%
    07:00 +5°C° 0,3 mm 8 m/s 756 mmHg 82%
    08:00 +5°C° 0,3 mm 8 m/s 757 mmHg 76%
    09:00 +5°C° 0,3 mm 9 m/s 758 mmHg 69%
    10:00 +5°C° 0 mm 9 m/s 758 mmHg 65%
    11:00 +5°C° 0 mm 9 m/s 759 mmHg 61%
    12:00 +5°C° 0 mm 9 m/s 760 mmHg 57%
    13:00 +5°C° 0,1 mm 9 m/s 760 mmHg 58%
    14:00 +5°C° 0,1 mm 9 m/s 761 mmHg 59%
    15:00 +3°C° 0,1 mm 9 m/s 761 mmHg 60%
    16:00 +3°C° 0,2 mm 9 m/s 762 mmHg 61%
    17:00 +2°C° 0,2 mm 9 m/s 762 mmHg 63%
    18:00 +2°C° 0,2 mm 9 m/s 762 mmHg 65%
    19:00 +2°C° 0,2 mm 8 m/s 763 mmHg 66%
    20:00 +1°C° 0,2 mm 8 m/s 763 mmHg 67%
    21:00 +1°C° 0,2 mm 8 m/s 763 mmHg 68%
    22:00 +1°C° 0,1 mm 8 m/s 764 mmHg 68%
    23:00 +1°C° 0,1 mm 8 m/s 764 mmHg 68%

    26 Novembre, Dimanche

    Heure Température Précipitation Vent Pression Humidité
    00:00 +1°C° 0,1 mm 8 m/s 764 mmHg 68%
    01:00 +1°C° 0,2 mm 8 m/s 764 mmHg 69%
    02:00 +1°C° 0,2 mm 8 m/s 764 mmHg 69%
    03:00 +1°C° 0,2 mm 9 m/s 764 mmHg 69%
    04:00 +1°C° 0,1 mm 9 m/s 764 mmHg 70%
    05:00 +1°C° 0,1 mm 9 m/s 764 mmHg 71%
    06:00 +1°C° 0,1 mm 9 m/s 764 mmHg 71%
    07:00 +1°C° 0,2 mm 9 m/s 765 mmHg 72%
    08:00 +2°C° 0,2 mm 9 m/s 765 mmHg 73%
    09:00 +3°C° 0,2 mm 9 m/s 765 mmHg 74%
    10:00 +3°C° 0,3 mm 9 m/s 765 mmHg 73%
    11:00 +5°C° 0,3 mm 10 m/s 765 mmHg 73%
    12:00 +6°C° 0,3 mm 10 m/s 766 mmHg 72%
    13:00 +6°C° 0,2 mm 9 m/s 766 mmHg 73%
    14:00 +6°C° 0,2 mm 9 m/s 766 mmHg 74%
    15:00 +5°C° 0,2 mm 9 m/s 766 mmHg 74%
    16:00 +5°C° 0,3 mm 9 m/s 766 mmHg 75%
    17:00 +5°C° 0,3 mm 9 m/s 767 mmHg 76%
    18:00 +5°C° 0,3 mm 9 m/s 767 mmHg 77%
    19:00 +3°C° 0,1 mm 9 m/s 767 mmHg 77%
    20:00 +4°C° 0,1 mm 8 m/s 768 mmHg 78%
    21:00 +4°C° 0,1 mm 8 m/s 768 mmHg 78%
    22:00 +4°C° 0 mm 8 m/s 768 mmHg 79%
    23:00 +3°C° 0 mm 7 m/s 768 mmHg 80%

    27 Novembre, Lundi

    Heure Température Précipitation Vent Pression Humidité
    00:00 +3°C° 0 mm 7 m/s 768 mmHg 80%
    01:00 +3°C° 0 mm 7 m/s 768 mmHg 81%
    02:00 +3°C° 0 mm 7 m/s 768 mmHg 81%
    03:00 +3°C° 0 mm 7 m/s 767 mmHg 81%
    04:00 +3°C° 0 mm 7 m/s 767 mmHg 82%
    05:00 +2°C° 0 mm 7 m/s 767 mmHg 83%
    06:00 +1°C° 0 mm 8 m/s 766 mmHg 83%
    07:00 +2°C° 0 mm 8 m/s 766 mmHg 83%
    08:00 +2°C° 0 mm 9 m/s 765 mmHg 83%
    09:00 +3°C° 0 mm 9 m/s 765 mmHg 82%
    10:00 +5°C° 0,1 mm 10 m/s 764 mmHg 80%
    11:00 +4°C° 0,1 mm 11 m/s 763 mmHg 77%
    12:00 +5°C° 0,1 mm 12 m/s 762 mmHg 74%
    13:00 +5°C° 0,5 mm 12 m/s 760 mmHg 75%
    14:00 +5°C° 0,5 mm 13 m/s 759 mmHg 76%
    15:00 +5°C° 0,5 mm 14 m/s 758 mmHg 77%
    16:00 +5°C° 1,7 mm 14 m/s 757 mmHg 78%
    17:00 +5°C° 1,7 mm 13 m/s 757 mmHg 79%
    18:00 +5°C° 1,7 mm 13 m/s 756 mmHg 80%
    19:00 +5°C° 1 mm 12 m/s 756 mmHg 79%
    20:00 +6°C° 1 mm 11 m/s 756 mmHg 77%
    21:00 +5°C° 1 mm 9 m/s 756 mmHg 75%
    22:00 +5°C° 0,1 mm 9 m/s 757 mmHg 75%
    23:00 +3°C° 0,1 mm 9 m/s 757 mmHg 76%
    Voir plus